Other Public Products
Issued by NWS Grand Forks, ND

Home | Current Version | Previous Version | Graphics & Text | Print | Product List | Glossary On
Versions: 1 2 3 4 5 6 7 8 9 10 11 12 13 14 15 16 17 18 19 20 21 22 23 24 25 26 27 28 29 30 31 32 33 34 35 36 37 38 39 40 41 42 43 44 45 46 47 48 49 50
000
FPUS83 KFGF 250110
OPUFGF
PRAIRIE TO PINES WEATHER ROUNDUP
NATIONAL WEATHER SERVICE EASTERN NORTH DAKOTA/GRAND FORKS ND
700 PM CST SAT JAN 24 2015

 **SATELLITE DATA USED TO AUGMENT SKY COVER AT AUTOMATED STATIONS**
 *****  WEATHER ACROSS EASTERN NORTH DAKOTA  *****

CITY           SKY/WX    TMP DP  RH WIND       PRES   REMARKS
GRAND FORKS    CLOUDY    25  21  85 N22       29.76R WCI  10
GRAND FORKS AF MIX PCPN  24  19  84 N16G24    29.77R WCI  10
GRAND CITY NWS   N/A     25 N/A N/A VRB18       N/A  WCI  11
BUXTON         NOT AVBL
DEVILS LAKE    CLOUDY    21  18  86 NE7       29.75R WCI  13
FARGO          CLOUDY    34  30  85 N14       29.67R WCI  25
WAHPETON ARPT  CLOUDY    32  30  93 N7        29.64R
$$

 *****  WEATHER ACROSS CENTRAL AND WESTERN NORTH DAKOTA  *****

CITY           SKY/WX    TMP DP  RH WIND       PRES   REMARKS
JAMESTOWN      LGT SNOW  30  28  92 N12       29.69R FOG     WCI  20
BISMARCK       LGT SNOW  34  32  92 NW9       29.77R FOG
MINOT          LGT SNOW  32  30  92 W3        29.75R VSB 3/4
MINOT AFB      LGT SNOW  32  32 100 N3        29.74R FOG
GARRISON         N/A     33  32  96 W6        29.75R
WILLISTON      PTCLDY    38  32  79 NW22G31   29.84R
DICKINSON      CLOUDY    39  34  82 NW23G31   29.80R
HETTINGER      CLOUDY    40  33  76 NW24G38   29.82R
$$

 *****  OTHER OBSERVATIONS NORTHEAST NORTH DAKOTA  *****

CITY           SKY/WX    TMP DP  RH WIND       PRES   REMARKS
WALHALLA         N/A     16  16 100 N13       29.83R WCI   2
LANGDON        CLOUDY    18  14  86 NE12      29.76R WCI   5
CAVALIER       CLOUDY    18  14  86 N14       29.80R WCI   4
GRAFTON        NOT AVBL
CANDO          FLURRIES  19  18  93 NE8       29.78R WCI   9
FORT TOTTEN      N/A     23  22  94 N5        29.95S WCI  17
ROLLA          LGT SNOW  18  18 100 NE10      29.77R WCI   6
RUGBY          LGT SNOW  23  23 100 NE9       29.77R WCI  13
 ***** THE ABOVE OBSERVATIONS ARE NON NWS ARE NOT QUALITY
        CONTROLLED AND MAY MIS-REPORT RAIN FOR SNOW...
$$

 *****  OTHER OBSERVATIONS SOUTHEAST NORTH DAKOTA *****

CITY           SKY/WX    TMP DP  RH WIND       PRES   REMARKS
COOPERSTOWN    NOT AVBL
VALLEY CITY    CLOUDY    28  28 100 N17       29.69R WCI  16
OAKES          LGT SNOW  32  32 100 N10       29.65R WCI  24
GWINNER        CLOUDY    32  32 100 N15       29.66R WCI  22
SHEYENNE NWR     N/A     32  31  94 NE7       29.95
BUFFALO        NOT AVBL
WYNDMERE         N/A     32  30  93 N6          N/A
 ***** THE ABOVE OBSERVATIONS ARE NON NWS ARE NOT QUALITY
       CONTROLLED AND MAY MIS-REPORT RAIN FOR SNOW...
$$

  *****  WEATHER ACROSS NORTHERN MINNESOTA  *****

CITY           SKY/WX    TMP DP  RH WIND       PRES   REMARKS
FLAG ISLAND    CLOUDY    14   5  67 NE10      29.81R WCI   1
WARROAD        CLOUDY    16   9  73 NE13      29.80R WCI   2
ROSEAU         CLEAR     18  10  73 NE10      29.79R WCI   6
HALLOCK        CLOUDY    19  16  86 N13       29.79R WCI   7
THF RVR FALLS  CLOUDY    27  19  74 N13       29.73R WCI  16
HALSTAD          N/A     33  30  90 N12         N/A  WCI  24
FOSSTON        CLOUDY    27  23  86 NE13      29.69R WCI  16
BAUDETTE       PTCLDY    15   6  67 NE8       29.77R WCI   4
WASKISH        FAIR      19  10  68 CALM      29.75R
CROOKSTON      CLOUDY    30  25  80 NE13      29.74R WCI  20
$$
  *****  WEATHER ACROSS CENTRAL AND WEST MINNESOTA  *****

CITY           SKY/WX    TMP DP  RH WIND       PRES   REMARKS
BEMIDJI        CLOUDY    30  26  83 NE10      29.66R WCI  21
PARK RAPIDS    CLOUDY    34  29  82 NE7       29.62R
WADENA         CLOUDY    30  28  93 NE3       29.61R
DETROIT LAKES  CLOUDY    32  32 100 N5        29.64R
MOORHEAD       CLOUDY    34  34 100 N10       29.66R FOG
FERGUS FALLS   CLOUDY    34  30  86 E6        29.64R
ELBOW LAKE     CLOUDY    32  31  96 N5        29.60R
MORRIS MN      CLOUDY    34  30  86 N5        29.59R
STAPLES        CLOUDY    30  30 100 CALM      29.61R
WHEATON        MOCLDY    30  28  93 NW5       29.64R
$$
  *****  WEATHER ELSEWHERE ACROSS MINNESOTA  *****

CITY           SKY/WX    TMP DP  RH WIND       PRES   REMARKS
DULUTH         FLURRIES  25  21  85 E20G29    29.68R WCI  11
INTRNTL FALLS  CLEAR     13   5  70 NE9       29.77R WCI   1
ELY            CLEAR     16   9  73 NE7       29.73R WCI   6
CLOQUET        LGT SNOW  28  25  86 E12G17    29.67R WCI  18
BRAINERD       CLOUDY    35  30  82 NE7       29.62R
HIBBING        PTCLDY    28  19  69 NE5       29.66R WCI  23
ALEXANDRIA     CLOUDY    33  30  88 NE9       29.59R
SAINT CLOUD    CLOUDY    34  30  85 CALM      29.60R
MINNEAPOLIS    CLOUDY    36  30  79 W3        29.60R
$$

  *****  WEATHER ACROSS SOUTH DAKOTA  *****

CITY           SKY/WX    TMP DP  RH WIND       PRES   REMARKS
SIOUX FALLS    CLOUDY    36  33  89 CALM      29.56F
BROOKINGS      NOT AVBL
WATERTOWN      CLOUDY    34  32  92 N6        29.56S
HURON          LGT RAIN  38  36  92 W10       29.58R
SISSETON         N/A     32  32 100 N8        29.62R WCI  25
ABERDEEN       LGT SNOW  33  32  96 N15       29.64R FOG     WCI  23
MITCHELL       CLOUDY    44  37  76 NW15      29.59R
PIERRE         CLOUDY    44  34  67 NW36G46   29.66R
MOBRIDGE       CLOUDY    39  36  89 NW21G32   29.66R
RAPID CITY     PTCLDY    43  29  57 NW45G54   29.87R
$$

  *****  SOME WEATHER IN NEARBY STATES *****

CITY           SKY/WX    TMP DP  RH WIND       PRES   REMARKS
GLASGOW MT     CLEAR     39  31  72 W16G25    29.99R
GREAT FALLS MT CLOUDY    44  31  60 SW15      30.13S
CHEYENNE WY    MOCLDY    39  23  52 NW16G25   30.05R
SCOTTSBLUFF NE LGT RAIN  39  36  89 NW22G43   30.03R
OMAHA NE       CLOUDY    49  31  49 SW3       29.64S
DES MOINES IA  CLOUDY    46  29  51 SW8       29.63F
DAVENPORT IA   CLOUDY    38  31  76 S7        29.66S
CHICAGO IL     MOCLDY    32  29  88 SW5       29.67F
EAU CLAIRE WI  CLOUDY    31  27  85 NE3       29.62R
LA CROSSE WI   CLOUDY    34  30  85 SE5       29.63R
$$

  *****  SOME NATIONAL WEATHER *****

CITY           SKY/WX    TMP DP  RH WIND       PRES   REMARKS
LA GUARDIA NY  PTCLDY    38  27  64 NW15G23   29.39R
RALEIGH NC     CLEAR     41  24  51 W5        29.75R
ATLANTA GA     CLEAR     41  25  53 W7        29.94S
NEW ORLEANS LA PTCLDY    50  32  50 SW7       30.09F
OKLAHOMA CITY  PTCLDY    49  31  49 SW5       29.95R
ALBUQUERQUE NM PTCLDY    46  19  34 N7        30.21R
SALT LAKE CITY CLOUDY    37  28  70 N6        30.45R
LOS ANGELES CA CLEAR     70  40  33 W5        29.99S
BOISE ID       CLOUDY    38  32  79 W5        30.46S
SEATTLE WA     MOCLDY    57  53  86 SW12      30.23F
$$

*** WEATHER ACROSS MANITOBA...SASKATCHEWAN AND ONTARIO ***
                ***ONTARIO***

CITY           SKY/WX    TMP DP  RH WIND       PRES   REMARKS
GERALDTON      CLEAR     -9 -13  84 NW3       29.83R
THUNDER BAY    CLEAR      9  -4  56 N8        29.87R WCI  -4
SIOUX LOOKOUT  PTCLDY    -2  -8  78 CALM      29.86R
TORONTO        CLOUDY    32  28  86 W14G20    29.48S WCI  22
BIG TROUT LK   CLEAR    -15 -20  76 N3        29.98R
PICKLE LAKE    PTCLDY    -6 -11  77 NE6       29.87S WCI -18
DRYDEN         CLEAR      1  -4  78 NE7       29.84R WCI -11
KENORA         MOCLDY     9   0  66 NE9       29.82R WCI  -5
$$
                *** MANITOBA***

CITY           SKY/WX    TMP DP  RH WIND       PRES   REMARKS
BRANDON        LGT SNOW  14  10  85 E9        29.84R WCI   2
DAUPHIN        FLURRIES  10   5  79 E8        29.88R WCI  -1
ISLAND LAKE    PTCLDY    -9 -15  77 E2        30.02R
PILOT MOUND      N/A     16  12  86 N6          N/A  WCI   7
THE PAS        FLURRIES   1  -4  78 E8        29.94R WCI -12
THOMPSON       MOCLDY   -11 -17  77 NE2       30.04R
WINNIPEG       CLOUDY    14   7  73 NE10      29.85R WCI   1
LYNN LAKE      FLURRIES  -6 -11  77 SE9       29.93S WCI -22
CHURCHILL      CLEAR    -24 -29  76 NW10      30.12R WCI -46
GILLAM         PTCLDY   -18 -24  76 NW2       30.08R
$$
                ***SASKATCHEWAN***

CITY           SKY/WX    TMP DP  RH WIND       PRES   REMARKS
ESTEVAN        CLOUDY    36  32  87 NW22G30   29.77R
KINDERSLEY     PTCLDY    34  28  80 NW13      29.96R WCI  25
LLOYDMINSTER   MOCLDY    36  28  75 NW12      29.92R
PRINCE ALBERT  MOCLDY    14  12  92 NW8       29.89R WCI   3
REGINA         NOT AVBL


USA.gov is the U.S. government's official web portal to all federal, state and local government web resources and services.